When you browse on this site, cookies collect data to enhance your experience and personalize the content and advertising you see.
Visit our Privacy Policy to learn more. By continuing to use the site, you agree to this use of cookies and data.
  • In Germany
  • List of Countries
  • For 7 days
  • Water Temperature
  • Satellite Maps
  • Weather Map
  • Weather Widgets
  • user-avatar
    Login

    Hourly Weather Satif

    Today, 23 January, Wednesday

    Time Temperature Precipitation Wind Pressure Humidity
    00:00 -1°C° 0 mm 2 mps 663 mmHg 81%
    01:00 -1°C° 0 mm 2 mps 663 mmHg 83%
    02:00 -1°C° 0 mm 2 mps 662 mmHg 84%
    03:00 -1°C° 0 mm 2 mps 662 mmHg 86%
    04:00 -1°C° 0 mm 2 mps 662 mmHg 87%
    05:00 -1°C° 0 mm 2 mps 661 mmHg 89%
    06:00 -1°C° 0 mm 2 mps 661 mmHg 91%
    07:00 0°C° 0.5 mm 3 mps 661 mmHg 89%
    08:00 -1°C° 0.5 mm 4 mps 661 mmHg 87%
    09:00 0°C° 0.5 mm 4 mps 661 mmHg 85%
    10:00 +1°C° 0.1 mm 5 mps 661 mmHg 81%
    11:00 +1°C° 0.1 mm 6 mps 661 mmHg 77%
    12:00 +2°C° 0.1 mm 7 mps 661 mmHg 72%
    13:00 +2°C° 0.5 mm 7 mps 660 mmHg 74%
    14:00 +2°C° 0.5 mm 6 mps 660 mmHg 76%
    15:00 +2°C° 0.5 mm 6 mps 659 mmHg 78%
    16:00 +2°C° 1.3 mm 7 mps 659 mmHg 82%
    17:00 +1°C° 1.3 mm 8 mps 658 mmHg 87%
    18:00 0°C° 1.3 mm 8 mps 658 mmHg 92%
    19:00 0°C° 1.2 mm 7 mps 658 mmHg 92%
    20:00 +1°C° 1.2 mm 6 mps 658 mmHg 92%
    21:00 +1°C° 1.2 mm 5 mps 658 mmHg 93%
    22:00 +2°C° 2.1 mm 5 mps 657 mmHg 93%
    23:00 +2°C° 2.1 mm 6 mps 657 mmHg 94%

    Tomorrow, 24 January, Thursday

    Time Temperature Precipitation Wind Pressure Humidity
    00:00 +2°C° 2.1 mm 6 mps 657 mmHg 94%
    01:00 0°C° 1.1 mm 7 mps 657 mmHg 93%
    02:00 0°C° 1.1 mm 9 mps 657 mmHg 91%
    03:00 0°C° 1.1 mm 10 mps 657 mmHg 90%
    04:00 -2°C° 2.1 mm 10 mps 657 mmHg 91%
    05:00 -2°C° 2.1 mm 10 mps 657 mmHg 91%
    06:00 -1°C° 2.1 mm 9 mps 656 mmHg 92%
    07:00 -1°C° 1.5 mm 8 mps 657 mmHg 93%
    08:00 -1°C° 1.5 mm 6 mps 657 mmHg 93%
    09:00 0°C° 1.5 mm 4 mps 657 mmHg 94%
    10:00 -2°C° 1.6 mm 6 mps 657 mmHg 92%
    11:00 -2°C° 1.6 mm 7 mps 657 mmHg 91%
    12:00 -4°C° 1.6 mm 8 mps 657 mmHg 90%
    13:00 -4°C° 0.1 mm 9 mps 658 mmHg 87%
    14:00 -4°C° 0.1 mm 10 mps 658 mmHg 84%
    15:00 -4°C° 0.1 mm 11 mps 658 mmHg 81%
    16:00 -4°C° 0.1 mm 10 mps 659 mmHg 83%
    17:00 -4°C° 0.1 mm 9 mps 659 mmHg 86%
    18:00 -5°C° 0.1 mm 8 mps 660 mmHg 89%
    19:00 -5°C° 0.1 mm 8 mps 660 mmHg 90%
    20:00 -4°C° 0.1 mm 7 mps 661 mmHg 90%
    21:00 -4°C° 0.1 mm 7 mps 661 mmHg 91%
    22:00 -4°C° 0 mm 7 mps 661 mmHg 92%
    23:00 -5°C° 0 mm 6 mps 661 mmHg 92%

    Day after tomorrow, 25 January, Friday

    Time Temperature Precipitation Wind Pressure Humidity
    00:00 -5°C° 0 mm 6 mps 661 mmHg 93%
    01:00 -5°C° 0.1 mm 5 mps 661 mmHg 94%
    02:00 -4°C° 0.1 mm 4 mps 661 mmHg 94%
    03:00 -4°C° 0.1 mm 3 mps 661 mmHg 95%
    04:00 -4°C° 0.4 mm 3 mps 661 mmHg 95%
    05:00 -3°C° 0.4 mm 4 mps 662 mmHg 94%
    06:00 -3°C° 0.4 mm 4 mps 662 mmHg 94%
    07:00 -4°C° 0.2 mm 5 mps 663 mmHg 92%
    08:00 -4°C° 0.2 mm 6 mps 663 mmHg 89%
    09:00 -4°C° 0.2 mm 8 mps 664 mmHg 87%
    10:00 -3°C° 0.1 mm 7 mps 664 mmHg 87%
    11:00 -3°C° 0.1 mm 6 mps 664 mmHg 88%
    12:00 -1°C° 0.1 mm 5 mps 664 mmHg 89%
    13:00 -1°C° 0 mm 5 mps 663 mmHg 88%
    14:00 -1°C° 0 mm 5 mps 663 mmHg 87%
    15:00 0°C° 0 mm 4 mps 662 mmHg 87%
    16:00 0°C° 0.4 mm 5 mps 662 mmHg 89%
    17:00 -1°C° 0.4 mm 5 mps 662 mmHg 91%
    18:00 -1°C° 0.4 mm 5 mps 662 mmHg 94%
    19:00 -1°C° 0.2 mm 5 mps 662 mmHg 93%
    20:00 -1°C° 0.2 mm 5 mps 663 mmHg 93%
    21:00 -2°C° 0.2 mm 5 mps 663 mmHg 93%
    22:00 -2°C° 0.3 mm 5 mps 663 mmHg 93%
    23:00 -2°C° 0.3 mm 5 mps 664 mmHg 94%

    26 January, Saturday

    Time Temperature Precipitation Wind Pressure Humidity
    00:00 -2°C° 0.3 mm 5 mps 664 mmHg 94%
    01:00 -4°C° 0.1 mm 5 mps 664 mmHg 94%
    02:00 -4°C° 0.1 mm 5 mps 664 mmHg 94%
    03:00 -4°C° 0.1 mm 5 mps 664 mmHg 94%
    04:00 -4°C° 0.1 mm 6 mps 664 mmHg 94%
    05:00 -4°C° 0.1 mm 6 mps 665 mmHg 94%
    06:00 -5°C° 0.1 mm 6 mps 665 mmHg 93%
    07:00 -4°C° 0.1 mm 7 mps 665 mmHg 91%
    08:00 -4°C° 0.1 mm 7 mps 666 mmHg 89%
    09:00 -3°C° 0.1 mm 7 mps 667 mmHg 87%
    10:00 -4°C° 0.1 mm 8 mps 667 mmHg 87%
    11:00 -4°C° 0.1 mm 8 mps 667 mmHg 88%
    12:00 -3°C° 0.1 mm 9 mps 667 mmHg 88%
    13:00 -2°C° 0 mm 8 mps 667 mmHg 88%
    14:00 -2°C° 0 mm 8 mps 667 mmHg 87%
    15:00 -2°C° 0 mm 7 mps 667 mmHg 87%
    16:00 -3°C° 0 mm 6 mps 667 mmHg 89%
    17:00 -4°C° 0 mm 5 mps 668 mmHg 91%
    18:00 -4°C° 0 mm 3 mps 668 mmHg 94%
    19:00 -2°C° 0 mm 3 mps 668 mmHg 94%
    20:00 -2°C° 0 mm 3 mps 669 mmHg 94%
    21:00 -2°C° 0 mm 3 mps 669 mmHg 95%
    22:00 -2°C° 0 mm 2 mps 669 mmHg 94%
    23:00 -2°C° 0 mm 2 mps 669 mmHg 94%

    27 January, Sunday

    Time Temperature Precipitation Wind Pressure Humidity
    00:00 -2°C° 0 mm 2 mps 669 mmHg 93%
    01:00 -3°C° 0 mm 2 mps 668 mmHg 93%
    02:00 -4°C° 0 mm 2 mps 668 mmHg 93%
    03:00 -2°C° 0 mm 1 mps 667 mmHg 93%
    04:00 -2°C° 0 mm 1 mps 667 mmHg 89%
    05:00 -3°C° 0 mm 1 mps 667 mmHg 85%
    06:00 -3°C° 0 mm 1 mps 667 mmHg 81%
    07:00 -2°C° 0 mm 1 mps 667 mmHg 75%
    08:00 -2°C° 0 mm 2 mps 668 mmHg 69%
    09:00 -1°C° 0 mm 2 mps 668 mmHg 63%
    10:00 +1°C° 0 mm 2 mps 668 mmHg 66%
    11:00 +2°C° 0 mm 2 mps 667 mmHg 70%
    12:00 +2°C° 0 mm 3 mps 667 mmHg 73%
    13:00 +2°C° 0.1 mm 3 mps 667 mmHg 76%
    14:00 +2°C° 0.1 mm 3 mps 666 mmHg 79%
    15:00 +2°C° 0.1 mm 3 mps 666 mmHg 82%
    16:00 +2°C° 0.1 mm 3 mps 666 mmHg 83%
    17:00 +1°C° 0.1 mm 3 mps 665 mmHg 85%
    18:00 +2°C° 0.1 mm 2 mps 665 mmHg 87%
    19:00 +2°C° 0.3 mm 2 mps 665 mmHg 88%
    20:00 +2°C° 0.3 mm 2 mps 665 mmHg 89%
    21:00 +2°C° 0.3 mm 2 mps 665 mmHg 90%
    22:00 +2°C° 0.4 mm 2 mps 665 mmHg 91%
    23:00 +2°C° 0.4 mm 2 mps 664 mmHg 92%

    28 January, Monday

    Time Temperature Precipitation Wind Pressure Humidity
    00:00 +2°C° 0.4 mm 2 mps 664 mmHg 93%
    01:00 +2°C° 0.2 mm 2 mps 664 mmHg 94%
    02:00 +1°C° 0.2 mm 2 mps 663 mmHg 95%
    03:00 +1°C° 0.2 mm 2 mps 663 mmHg 95%
    04:00 +1°C° 0.6 mm 2 mps 663 mmHg 95%
    05:00 +1°C° 0.6 mm 2 mps 663 mmHg 95%
    06:00 +1°C° 0.6 mm 2 mps 662 mmHg 95%
    07:00 0°C° 0.6 mm 3 mps 663 mmHg 96%
    08:00 0°C° 0.6 mm 3 mps 663 mmHg 96%
    09:00 -1°C° 0.6 mm 4 mps 664 mmHg 96%
    10:00 -1°C° 0.1 mm 4 mps 664 mmHg 95%
    11:00 -1°C° 0.1 mm 4 mps 664 mmHg 93%
    12:00 0°C° 0.1 mm 3 mps 664 mmHg 91%
    13:00 0°C° 0.2 mm 3 mps 664 mmHg 91%
    14:00 0°C° 0.2 mm 3 mps 664 mmHg 90%
    15:00 0°C° 0.2 mm 3 mps 664 mmHg 90%
    16:00 0°C° 0.2 mm 3 mps 664 mmHg 91%
    17:00 -1°C° 0.2 mm 3 mps 665 mmHg 93%
    18:00 -1°C° 0.2 mm 2 mps 665 mmHg 94%
    19:00 -1°C° 0.1 mm 2 mps 665 mmHg 95%
    20:00 -2°C° 0.1 mm 2 mps 665 mmHg 95%
    21:00 0°C° 0.1 mm 1 mps 666 mmHg 96%
    22:00 0°C° 0.2 mm 1 mps 665 mmHg 96%
    23:00 0°C° 0.2 mm 1 mps 665 mmHg 96%
    Show more